| time (UTC) | temp C | wind direction | speed KPH | gust KPH | rain 1hr cm | rain 24hr cm | rain mn cm | humidity % | barometer mb |
| 20260506062007 | 16 | 234 | 3.2 | 8.0 | 0.00 | 0.03 | 0.00 | 74 | 1008.5 |
| 20260506061520 | 16 | 274 | 3.2 | 8.0 | 0.00 | 0.03 | 0.00 | 74 | 1008.5 |
| 20260506061006 | 16 | 233 | 3.2 | 11.3 | 0.00 | 0.03 | 0.00 | 74 | 1008.5 |
| 20260506060507 | 16 | 227 | 4.8 | 11.3 | 0.00 | 0.03 | 0.00 | 73 | 1008.5 |
| 20260506051010 | 16 | 200 | 4.8 | 12.9 | 0.00 | 0.03 | 0.00 | 71 | 1008.8 |
| 20260506050506 | 16 | 219 | 4.8 | 11.3 | 0.00 | 0.03 | 0.00 | 71 | 1008.7 |
| 20260506045007 | 16 | 211 | 4.8 | 11.3 | 0.00 | 0.03 | 0.00 | 71 | 1008.8 |
| 20260506044006 | 17 | 212 | 8.0 | 14.5 | 0.00 | 0.03 | 0.00 | 70 | 1008.6 |
| 20260506043508 | 17 | 213 | 3.2 | 12.9 | 0.00 | 0.03 | 0.00 | 70 | 1008.8 |
| 20260506042004 | 17 | 146 | 8.0 | 20.9 | 0.00 | 0.03 | 0.00 | 69 | 1008.6 |
| 20260506041522 | 17 | 238 | 8.0 | 20.9 | 0.00 | 0.03 | 0.00 | 68 | 1008.8 |
| 20260506041002 | 17 | 186 | 4.8 | 20.9 | 0.00 | 0.03 | 0.00 | 69 | 1008.8 |
| 20260506040505 | 17 | 230 | 9.7 | 20.9 | 0.00 | 0.03 | 0.00 | 68 | 1008.8 |
| 20260506035512 | 17 | 227 | 6.4 | 19.3 | 0.00 | 0.03 | 0.03 | 68 | 1008.8 |
| 20260506035005 | 17 | 216 | 6.4 | 16.1 | 0.00 | 0.03 | 0.03 | 68 | 1008.8 |
| 20260506034522 | 17 | 199 | 8.0 | 17.7 | 0.00 | 0.03 | 0.03 | 67 | 1008.9 |
| 20260506034004 | 17 | 154 | 9.7 | 20.9 | 0.00 | 0.03 | 0.03 | 67 | 1009.0 |
| 20260506033508 | 17 | 181 | 11.3 | 20.9 | 0.00 | 0.03 | 0.03 | 67 | 1008.8 |
| 20260506033020 | 17 | 193 | 8.0 | 14.5 | 0.00 | 0.03 | 0.03 | 67 | 1008.9 |
| 20260506032507 | 17 | 195 | 6.4 | 14.5 | 0.00 | 0.03 | 0.03 | 67 | 1008.8 |
| 20260506032012 | 17 | 200 | 9.7 | 14.5 | 0.00 | 0.03 | 0.03 | 68 | 1008.7 |
| 20260506031525 | 17 | 209 | 4.8 | 11.3 | 0.00 | 0.03 | 0.03 | 68 | 1008.7 |
| 20260506031015 | 18 | 187 | 4.8 | 11.3 | 0.00 | 0.03 | 0.03 | 69 | 1008.9 |
| 20260506030511 | 18 | 195 | 6.4 | 11.3 | 0.00 | 0.03 | 0.03 | 68 | 1008.8 |
| 20260506030020 | 18 | 208 | 6.4 | 11.3 | 0.00 | 0.03 | 0.03 | 68 | 1008.8 |
| 20260506025505 | 18 | 259 | 4.8 | 11.3 | 0.00 | 0.03 | 0.03 | 68 | 1008.8 |
| 20260506025003 | 18 | 205 | 3.2 | 11.3 | 0.00 | 0.03 | 0.03 | 68 | 1008.8 |
| 20260506024533 | 18 | 252 | 4.8 | 11.3 | 0.00 | 0.03 | 0.03 | 68 | 1008.9 |
| 20260506024005 | 18 | 197 | 4.8 | 11.3 | 0.00 | 0.03 | 0.03 | 69 | 1008.8 |
| 20260506023508 | 18 | 169 | 4.8 | 11.3 | 0.00 | 0.03 | 0.03 | 68 | 1008.7 |
| 20260506023019 | 18 | 172 | 4.8 | 12.9 | 0.00 | 0.03 | 0.03 | 68 | 1008.6 |
| 20260506022508 | 18 | 199 | 6.4 | 12.9 | 0.00 | 0.03 | 0.03 | 68 | 1008.6 |
| 20260506022003 | 18 | 193 | 4.8 | 11.3 | 0.00 | 0.03 | 0.03 | 68 | 1008.8 |
| 20260506021003 | 18 | 200 | 3.2 | 17.7 | 0.00 | 0.03 | 0.03 | 69 | 1008.6 |
| 20260506020503 | 18 | 182 | 8.0 | 17.7 | 0.00 | 0.03 | 0.03 | 69 | 1008.7 |
| 20260506020010 | 18 | 226 | 8.0 | 16.1 | 0.00 | 0.03 | 0.03 | 70 | 1008.8 |
| 20260506015504 | 18 | 210 | 3.2 | 9.7 | 0.00 | 0.03 | 0.03 | 71 | 1008.7 |
| 20260506015004 | 18 | 203 | 6.4 | 9.7 | 0.00 | 0.03 | 0.03 | 71 | 1008.6 |
| 20260506014528 | 18 | 181 | 4.8 | 9.7 | 0.00 | 0.03 | 0.03 | 72 | 1008.6 |
| 20260506014003 | 18 | 199 | 4.8 | 9.7 | 0.00 | 0.03 | 0.03 | 73 | 1008.6 |
| 20260506013507 | 18 | 214 | 3.2 | 11.3 | 0.00 | 0.03 | 0.03 | 74 | 1008.5 |
| 20260506012502 | 18 | 219 | 1.6 | 11.3 | 0.00 | 0.03 | 0.03 | 75 | 1008.3 |
| 20260506011004 | 17 | 209 | 3.2 | 8.0 | 0.00 | 0.03 | 0.03 | 76 | 1008.2 |
| 20260506010503 | 17 | 177 | 4.8 | 8.0 | 0.00 | 0.03 | 0.03 | 77 | 1008.2 |
| 20260506010006 | 18 | 141 | 4.8 | 8.0 | 0.00 | 0.03 | 0.03 | 77 | 1008.1 |
| 20260506005504 | 18 | 240 | 0.0 | 4.8 | 0.00 | 0.03 | 0.03 | 77 | 1008.0 |
| 20260506005003 | 18 | 218 | 1.6 | 8.0 | 0.00 | 0.03 | 0.03 | 77 | 1008.0 |
| 20260506004512 | 18 | 219 | 3.2 | 8.0 | 0.00 | 0.03 | 0.03 | 77 | 1008.1 |
| 20260506004004 | 18 | 169 | 3.2 | 6.4 | 0.00 | 0.03 | 0.03 | 77 | 1008.1 |
| 20260506003509 | 18 | 158 | 3.2 | 6.4 | 0.03 | 0.03 | 0.03 | 76 | 1008.0 |
| 20260506003018 | 18 | 213 | 1.6 | 8.0 | 0.03 | 0.03 | 0.03 | 76 | 1007.9 |
| 20260506002506 | 18 | 232 | 3.2 | 9.7 | 0.03 | 0.03 | 0.03 | 75 | 1007.9 |
| 20260506002007 | 18 | 223 | 4.8 | 9.7 | 0.03 | 0.03 | 0.03 | 75 | 1007.9 |
| 20260506001532 | 18 | 217 | 3.2 | 8.0 | 0.03 | 0.03 | 0.03 | 76 | 1007.9 |
| 20260506001004 | 18 | 225 | 1.6 | 8.0 | 0.03 | 0.03 | 0.03 | 76 | 1007.9 |
| 20260506000502 | 19 | 246 | 4.8 | 12.9 | 0.03 | 0.03 | 0.03 | 74 | 1007.7 |
| 20260506000006 | 19 | 205 | 6.4 | 12.9 | 0.03 | 0.03 | 0.03 | 72 | 1007.5 |
| 20260505235504 | 20 | 224 | 4.8 | 12.9 | 0.03 | 0.03 | 0.03 | 71 | 1007.5 |
| 20260505235004 | 20 | 222 | 4.8 | 12.9 | 0.03 | 0.03 | 0.03 | 70 | 1007.4 |
| 20260505234509 | 20 | 214 | 4.8 | 11.3 | 0.03 | 0.03 | 0.03 | 70 | 1007.5 |
| 20260505234005 | 21 | 233 | 6.4 | 11.3 | 0.03 | 0.03 | 0.03 | 66 | 1007.3 |
| 20260505233504 | 21 | 245 | 3.2 | 9.7 | 0.00 | 0.00 | 0.00 | 63 | 1007.1 |
| 20260505233020 | 22 | 210 | 3.2 | 16.1 | 0.00 | 0.00 | 0.00 | 58 | 1006.7 |
| 20260505232504 | 23 | 269 | 6.4 | 24.1 | 0.00 | 0.00 | 0.00 | 53 | 1006.2 |
| 20260505232005 | 23 | 200 | 11.3 | 24.1 | 0.00 | 0.00 | 0.00 | 52 | 1005.5 |
| 20260505231525 | 23 | 159 | 12.9 | 30.6 | 0.00 | 0.00 | 0.00 | 51 | 1005.4 |
| 20260505231007 | 23 | 215 | 16.1 | 30.6 | 0.00 | 0.00 | 0.00 | 50 | 1005.4 |
| 20260505230505 | 23 | 181 | 14.5 | 30.6 | 0.00 | 0.00 | 0.00 | 50 | 1005.4 |
| 20260505230043 | 23 | 195 | 12.9 | 30.6 | 0.00 | 0.00 | 0.00 | 50 | 1005.2 |
| 20260505225506 | 23 | 215 | 9.7 | 24.1 | 0.00 | 0.00 | 0.00 | 50 | 1005.2 |
| 20260505225002 | 23 | 168 | 12.9 | 24.1 | 0.00 | 0.00 | 0.00 | 50 | 1005.3 |
| 20260505224505 | 23 | 210 | 12.9 | 24.1 | 0.00 | 0.00 | 0.00 | 50 | 1005.2 |
| 20260505224004 | 24 | 206 | 12.9 | 32.2 | 0.00 | 0.00 | 0.00 | 49 | 1005.2 |
| 20260505223504 | 24 | 213 | 19.3 | 32.2 | 0.00 | 0.00 | 0.00 | 49 | 1005.2 |
| 20260505223010 | 24 | 179 | 11.3 | 22.5 | 0.00 | 0.00 | 0.00 | 50 | 1005.0 |
| 20260505222505 | 24 | 86 | 11.3 | 24.1 | 0.00 | 0.00 | 0.00 | 50 | 1005.0 |
| 20260505222006 | 24 | 169 | 14.5 | 24.1 | 0.00 | 0.00 | 0.00 | 49 | 1004.9 |
| 20260505221526 | 24 | 171 | 9.7 | 29.0 | 0.00 | 0.00 | 0.00 | 49 | 1004.8 |
| 20260505221010 | 25 | 204 | 11.3 | 33.8 | 0.00 | 0.00 | 0.00 | 49 | 1004.6 |
| 20260505220506 | 25 | 204 | 16.1 | 37.0 | 0.00 | 0.00 | 0.00 | 49 | 1004.7 |
| 20260505220030 | 25 | 245 | 22.5 | 37.0 | 0.00 | 0.00 | 0.00 | 49 | 1004.9 |
| 20260505215505 | 25 | 207 | 17.7 | 32.2 | 0.00 | 0.00 | 0.00 | 48 | 1004.6 |
| 20260505215011 | 25 | 186 | 20.9 | 32.2 | 0.00 | 0.00 | 0.00 | 48 | 1004.8 |
| 20260505214526 | 25 | 187 | 14.5 | 33.8 | 0.00 | 0.00 | 0.00 | 48 | 1004.5 |
| 20260505214004 | 26 | 150 | 16.1 | 33.8 | 0.00 | 0.00 | 0.00 | 47 | 1004.5 |
| 20260505213505 | 26 | 221 | 17.7 | 29.0 | 0.00 | 0.00 | 0.00 | 46 | 1004.3 |
| 20260505213011 | 26 | 235 | 11.3 | 41.8 | 0.00 | 0.00 | 0.00 | 47 | 1004.2 |
| 20260505212505 | 25 | 163 | 20.9 | 41.8 | 0.00 | 0.00 | 0.00 | 46 | 1004.3 |
| 20260505212004 | 26 | 204 | 20.9 | 37.0 | 0.00 | 0.00 | 0.00 | 45 | 1004.1 |
| 20260505211515 | 26 | 172 | 22.5 | 37.0 | 0.00 | 0.00 | 0.00 | 45 | 1003.8 |
| 20260505211009 | 26 | 199 | 17.7 | 37.0 | 0.00 | 0.00 | 0.00 | 45 | 1003.9 |
| 20260505210505 | 26 | 180 | 19.3 | 37.0 | 0.00 | 0.00 | 0.00 | 44 | 1004.3 |
| 20260505210017 | 26 | 188 | 12.9 | 33.8 | 0.00 | 0.00 | 0.00 | 45 | 1004.0 |
| 20260505205506 | 26 | 173 | 14.5 | 35.4 | 0.00 | 0.00 | 0.00 | 45 | 1004.0 |
| 20260505205009 | 26 | 195 | 19.3 | 35.4 | 0.00 | 0.00 | 0.00 | 45 | 1003.9 |
| 20260505204521 | 26 | 199 | 16.1 | 33.8 | 0.00 | 0.00 | 0.00 | 43 | 1004.0 |
| 20260505204006 | 26 | 201 | 12.9 | 32.2 | 0.00 | 0.00 | 0.00 | 44 | 1004.0 |
| 20260505203509 | 27 | 254 | 14.5 | 37.0 | 0.00 | 0.00 | 0.00 | 44 | 1003.9 |
| 20260505203025 | 27 | 65 | 11.3 | 37.0 | 0.00 | 0.00 | 0.00 | 43 | 1003.9 |
| 20260505202505 | 27 | 150 | 11.3 | 20.9 | 0.00 | 0.00 | 0.00 | 43 | 1003.9 |
| 20260505202004 | 27 | 209 | 11.3 | 32.2 | 0.00 | 0.00 | 0.00 | 42 | 1004.0 |
| 20260505201514 | 27 | 143 | 14.5 | 35.4 | 0.00 | 0.00 | 0.00 | 42 | 1004.0 |
| 20260505201005 | 28 | 191 | 12.9 | 38.6 | 0.00 | 0.00 | 0.00 | 38 | 1004.0 |
| 20260505200506 | 28 | 267 | 16.1 | 41.8 | 0.00 | 0.00 | 0.00 | 34 | 1004.3 |
| 20260505200019 | 28 | 203 | 20.9 | 41.8 | 0.00 | 0.00 | 0.00 | 33 | 1004.2 |
| 20260505195504 | 28 | 206 | 14.5 | 35.4 | 0.00 | 0.00 | 0.00 | 33 | 1004.1 |
| 20260505195009 | 28 | 225 | 17.7 | 30.6 | 0.00 | 0.00 | 0.00 | 34 | 1004.2 |
| 20260505194011 | 27 | 220 | 20.9 | 38.6 | 0.00 | 0.00 | 0.00 | 34 | 1004.2 |
| 20260505193508 | 27 | 223 | 24.1 | 38.6 | 0.00 | 0.00 | 0.00 | 34 | 1004.1 |
| 20260505193023 | 27 | 15 | 14.5 | 27.4 | 0.00 | 0.00 | 0.00 | 43 | 1004.1 |
| 20260505192516 | 27 | 195 | 14.5 | 30.6 | 0.00 | 0.00 | 0.00 | 44 | 1004.3 |
| 20260505192008 | 27 | 196 | 14.5 | 38.6 | 0.00 | 0.00 | 0.00 | 43 | 1004.4 |
| 20260505191532 | 27 | 203 | 22.5 | 38.6 | 0.00 | 0.00 | 0.00 | 42 | 1004.4 |
| 20260505191010 | 26 | 195 | 17.7 | 30.6 | 0.00 | 0.00 | 0.00 | 44 | 1004.5 |
| 20260505190505 | 27 | 159 | 16.1 | 32.2 | 0.00 | 0.00 | 0.00 | 43 | 1004.6 |
| 20260505190014 | 27 | 186 | 12.9 | 38.6 | 0.00 | 0.00 | 0.00 | 44 | 1004.6 |
| 20260505185507 | 26 | 200 | 16.1 | 38.6 | 0.00 | 0.00 | 0.00 | 44 | 1004.6 |
| 20260505185006 | 27 | 134 | 19.3 | 32.2 | 0.00 | 0.00 | 0.00 | 43 | 1004.6 |
| 20260505184518 | 27 | 203 | 17.7 | 32.2 | 0.00 | 0.00 | 0.00 | 43 | 1004.7 |
| 20260505184008 | 27 | 124 | 16.1 | 27.4 | 0.00 | 0.00 | 0.00 | 43 | 1004.9 |
| 20260505183508 | 27 | 200 | 16.1 | 40.2 | 0.00 | 0.00 | 0.00 | 42 | 1005.0 |
| 20260505183024 | 27 | 242 | 14.5 | 40.2 | 0.00 | 0.00 | 0.00 | 42 | 1005.1 |
| 20260505182509 | 27 | 195 | 25.7 | 40.2 | 0.00 | 0.00 | 0.00 | 42 | 1005.3 |
| 20260505182016 | 27 | 148 | 20.9 | 30.6 | 0.00 | 0.00 | 0.00 | 41 | 1005.2 |
| 20260505181527 | 27 | 194 | 14.5 | 29.0 | 0.00 | 0.00 | 0.00 | 43 | 1005.3 |
| 20260505181010 | 26 | 220 | 16.1 | 30.6 | 0.00 | 0.00 | 0.00 | 45 | 1005.3 |
| 20260505180510 | 26 | 201 | 17.7 | 37.0 | 0.00 | 0.00 | 0.00 | 43 | 1005.4 |
| 20260505180043 | 26 | 223 | 19.3 | 37.0 | 0.00 | 0.00 | 0.00 | 44 | 1005.4 |
| 20260505175512 | 26 | 190 | 16.1 | 25.7 | 0.00 | 0.00 | 0.00 | 46 | 1005.5 |
| 20260505175005 | 26 | 190 | 17.7 | 30.6 | 0.00 | 0.00 | 0.00 | 44 | 1005.5 |
| 20260505174513 | 26 | 162 | 14.5 | 30.6 | 0.00 | 0.00 | 0.00 | 43 | 1005.6 |
| 20260505174007 | 27 | 136 | 19.3 | 30.6 | 0.00 | 0.00 | 0.00 | 44 | 1005.7 |
| 20260505173507 | 26 | 106 | 14.5 | 29.0 | 0.00 | 0.00 | 0.00 | 43 | 1005.7 |
| 20260505173019 | 26 | 155 | 12.9 | 33.8 | 0.00 | 0.00 | 0.00 | 43 | 1005.8 |
| 20260505172515 | 26 | 178 | 16.1 | 33.8 | 0.00 | 0.00 | 0.00 | 43 | 1005.8 |
| 20260505172007 | 26 | 221 | 12.9 | 32.2 | 0.00 | 0.00 | 0.00 | 43 | 1005.8 |
| 20260505171505 | 26 | 162 | 12.9 | 32.2 | 0.00 | 0.00 | 0.00 | 44 | 1005.9 |
| 20260505171006 | 26 | 244 | 16.1 | 33.8 | 0.00 | 0.00 | 0.00 | 43 | 1006.0 |
| 20260505170503 | 26 | 151 | 12.9 | 33.8 | 0.00 | 0.00 | 0.00 | 44 | 1005.9 |
| 20260505170006 | 26 | 203 | 14.5 | 32.2 | 0.00 | 0.00 | 0.00 | 45 | 1005.9 |
| 20260505165504 | 26 | 226 | 16.1 | 27.4 | 0.00 | 0.00 | 0.00 | 44 | 1005.9 |
| 20260505165004 | 26 | 208 | 16.1 | 25.7 | 0.00 | 0.00 | 0.00 | 45 | 1006.2 |
| 20260505162503 | 25 | 70 | 11.3 | 24.1 | 0.00 | 0.00 | 0.00 | 47 | 1006.7 |
| 20260505162003 | 25 | 150 | 11.3 | 24.1 | 0.00 | 0.00 | 0.00 | 48 | 1006.7 |
| 20260505161502 | 25 | 186 | 11.3 | 20.9 | 0.00 | 0.00 | 0.00 | 48 | 1006.9 |
| 20260505161003 | 25 | 160 | 9.7 | 20.9 | 0.00 | 0.00 | 0.00 | 48 | 1006.9 |
| 20260505160504 | 25 | 171 | 8.0 | 19.3 | 0.00 | 0.00 | 0.00 | 48 | 1007.0 |
| 20260505153010 | 23 | 150 | 8.0 | 14.5 | 0.00 | 0.00 | 0.00 | 53 | 1007.5 |
| 20260505152003 | 23 | 208 | 3.2 | 17.7 | 0.00 | 0.00 | 0.00 | 54 | 1007.8 |
| 20260505151003 | 22 | 85 | 1.6 | 11.3 | 0.00 | 0.00 | 0.00 | 54 | 1008.0 |
| 20260505150503 | 22 | 208 | 6.4 | 14.5 | 0.00 | 0.00 | 0.00 | 57 | 1008.1 |
| 20260505140504 | 18 | 220 | 11.3 | 19.3 | 0.00 | 0.00 | 0.00 | 63 | 1008.9 |
| 20260505125005 | 15 | 231 | 8.0 | 14.5 | 0.00 | 0.00 | 0.00 | 71 | 1009.3 |
| 20260505124005 | 15 | 257 | 8.0 | 16.1 | 0.00 | 0.00 | 0.00 | 73 | 1009.2 |
| 20260505123504 | 15 | 212 | 8.0 | 12.9 | 0.00 | 0.00 | 0.00 | 73 | 1009.1 |
| 20260505123022 | 15 | 165 | 3.2 | 12.9 | 0.00 | 0.00 | 0.00 | 74 | 1009.1 |
| 20260505122504 | 14 | 205 | 3.2 | 12.9 | 0.00 | 0.00 | 0.00 | 74 | 1009.1 |
| 20260505122007 | 13 | 204 | 4.8 | 11.3 | 0.00 | 0.00 | 0.00 | 75 | 1009.2 |
| 20260505121512 | 13 | 160 | 4.8 | 11.3 | 0.00 | 0.00 | 0.00 | 75 | 1009.2 |
| 20260505121005 | 13 | 177 | 3.2 | 12.9 | 0.00 | 0.00 | 0.00 | 76 | 1009.2 |
| 20260505120504 | 13 | 187 | 4.8 | 12.9 | 0.00 | 0.00 | 0.00 | 77 | 1009.3 |
| 20260505120019 | 13 | 198 | 8.0 | 17.7 | 0.00 | 0.00 | 0.00 | 77 | 1009.4 |
| 20260505115507 | 12 | 232 | 9.7 | 17.7 | 0.00 | 0.00 | 0.00 | 77 | 1009.5 |
| 20260505114511 | 12 | 214 | 6.4 | 16.1 | 0.00 | 0.00 | 0.00 | 77 | 1009.4 |
| 20260505114006 | 12 | 186 | 6.4 | 16.1 | 0.00 | 0.00 | 0.00 | 78 | 1009.4 |
| 20260505113505 | 12 | 222 | 4.8 | 11.3 | 0.00 | 0.00 | 0.00 | 78 | 1009.4 |
| 20260505112509 | 12 | 160 | 1.6 | 3.2 | 0.00 | 0.00 | 0.00 | 79 | 1009.4 |
| 20260505112006 | 12 | 174 | 1.6 | 8.0 | 0.00 | 0.00 | 0.00 | 80 | 1009.3 |
| 20260505111518 | 11 | 148 | 1.6 | 8.0 | 0.00 | 0.00 | 0.00 | 80 | 1009.3 |
| 20260505111007 | 11 | 117 | 1.6 | 6.4 | 0.00 | 0.00 | 0.00 | 81 | 1009.3 |
| 20260505110506 | 10 | 117 | 0.0 | 6.4 | 0.00 | 0.00 | 0.00 | 83 | 1009.3 |
| 20260505102007 | 7 | 99 | 0.0 | 1.6 | 0.00 | 0.00 | 0.00 | 88 | 1008.6 |
| 20260505101529 | 7 | 99 | 0.0 | 1.6 | 0.00 | 0.00 | 0.00 | 88 | 1008.5 |
| 20260505101007 | 7 | 99 | 0.0 | 1.6 | 0.00 | 0.00 | 0.00 | 88 | 1008.5 |
| 20260505100506 | 7 | 214 | 0.0 | 1.6 | 0.00 | 0.00 | 0.00 | 89 | 1008.5 |
| 20260505100038 | 7 | 196 | 0.0 | 0.0 | 0.00 | 0.00 | 0.00 | 88 | 1008.4 |
| 20260505095506 | 7 | 197 | 0.0 | 0.0 | 0.00 | 0.00 | 0.00 | 88 | 1008.4 |
| 20260505095008 | 7 | 198 | 0.0 | 0.0 | 0.00 | 0.00 | 0.00 | 88 | 1008.5 |
| 20260505094515 | 7 | 198 | 0.0 | 1.6 | 0.00 | 0.00 | 0.00 | 87 | 1008.5 |
| 20260505094007 | 7 | 200 | 0.0 | 1.6 | 0.00 | 0.00 | 0.00 | 88 | 1008.4 |
| 20260505093507 | 7 | 229 | 0.0 | 1.6 | 0.00 | 0.00 | 0.00 | 88 | 1008.5 |
| 20260505093023 | 7 | 166 | 0.0 | 1.6 | 0.00 | 0.00 | 0.00 | 87 | 1008.5 |
| 20260505092507 | 7 | 138 | 0.0 | 3.2 | 0.00 | 0.00 | 0.00 | 87 | 1008.5 |
| 20260505092009 | 7 | 144 | 0.0 | 3.2 | 0.00 | 0.00 | 0.00 | 88 | 1008.6 |
| 20260505091520 | 7 | 160 | 0.0 | 3.2 | 0.00 | 0.00 | 0.00 | 87 | 1008.7 |
| 20260505091006 | 7 | 148 | 0.0 | 3.2 | 0.00 | 0.00 | 0.00 | 87 | 1008.8 |
| 20260505090508 | 7 | 195 | 0.0 | 3.2 | 0.00 | 0.00 | 0.00 | 87 | 1008.7 |
| 20260505090017 | 7 | 200 | 1.6 | 3.2 | 0.00 | 0.00 | 0.00 | 86 | 1008.8 |
| 20260505085508 | 7 | 212 | 0.0 | 1.6 | 0.00 | 0.00 | 0.00 | 86 | 1008.9 |
| 20260505085007 | 8 | 100 | 0.0 | 0.0 | 0.00 | 0.00 | 0.00 | 85 | 1009.0 |
| 20260505084516 | 8 | 100 | 0.0 | 3.2 | 0.00 | 0.00 | 0.00 | 85 | 1009.1 |
| 20260505083507 | 8 | 173 | 0.0 | 0.0 | 0.00 | 0.00 | 0.00 | 86 | 1009.0 |
| 20260505083015 | 8 | 173 | 0.0 | 0.0 | 0.00 | 0.00 | 0.00 | 86 | 1009.0 |
| 20260505082508 | 8 | 173 | 0.0 | 0.0 | 0.00 | 0.00 | 0.00 | 85 | 1009.0 |
| 20260505082009 | 8 | 173 | 0.0 | 0.0 | 0.00 | 0.00 | 0.00 | 85 | 1008.9 |
| 20260505081003 | 8 | 173 | 0.0 | 1.6 | 0.00 | 0.00 | 0.00 | 84 | 1009.0 |
| 20260505075503 | 8 | 135 | 0.0 | 0.0 | 0.00 | 0.00 | 0.00 | 82 | 1009.0 |
| 20260505075005 | 8 | 135 | 0.0 | 1.6 | 0.00 | 0.00 | 0.00 | 82 | 1009.0 |
| 20260505074009 | 9 | 210 | 0.0 | 1.6 | 0.00 | 0.00 | 0.00 | 81 | 1009.0 |
| 20260505073504 | 10 | 210 | 0.0 | 1.6 | 0.00 | 0.00 | 0.00 | 79 | 1009.0 |
| 20260505072507 | 10 | 205 | 0.0 | 3.2 | 0.00 | 0.00 | 0.00 | 78 | 1008.9 |
| 20260505072006 | 10 | 212 | 0.0 | 3.2 | 0.00 | 0.00 | 0.00 | 78 | 1009.0 |
| 20260505071519 | 10 | 224 | 0.0 | 3.2 | 0.00 | 0.00 | 0.00 | 77 | 1009.1 |
| 20260505071007 | 10 | 210 | 0.0 | 3.2 | 0.00 | 0.00 | 0.00 | 76 | 1009.0 |
| 20260505070512 | 11 | 242 | 0.0 | 4.8 | 0.00 | 0.00 | 0.00 | 75 | 1009.0 |
| 20260505065003 | 11 | 215 | 3.2 | 8.0 | 0.00 | 0.00 | 0.00 | 75 | 1009.0 |
| 20260505064506 | 11 | 228 | 3.2 | 6.4 | 0.00 | 0.00 | 0.00 | 75 | 1009.1 |
| 20260505064005 | 11 | 219 | 1.6 | 4.8 | 0.00 | 0.00 | 0.00 | 74 | 1009.1 |
| 20260505063504 | 11 | 253 | 0.0 | 4.8 | 0.00 | 0.00 | 0.00 | 74 | 1009.1 |
| 20260505062505 | 11 | 205 | 3.2 | 4.8 | 0.00 | 0.00 | 0.00 | 73 | 1009.1 |